SCP
0 -0 -0 -0 -0 -0 -0 -0 -0 -0 -0 -0 -0 -0 -0 -0 -0 -0 0 0 0 0 0 0 0 0 0 0 0 0 0 0 0 0 0 0 0 0 0 0 0 0 0
-0 -0 -0 -0 -0 -0 -0 -0 -0 -0 -0 -0 -0 -0 -0 -0 -0 -0 0 0 0 0 0 0 0 0 0 0 0 0 0 0 0 0 0 0 0 0 0 0 0 0 0
-0 -0 -0 -0 -0 -0 -0 -0 -0 -0 -0 -0 -0 -0 -0 -0 -0 -0 0 0 0 0 0 0 0 0 0 0 0 0 0 0 0 0 0 0 0 0 0 1 0 0 0
-0 0 0 -0 -0 -0 -0 -0 -0 -0 -0 -0 -0 -0 -0 -0 -0 0 0 0 0 0 0 0 0 0 0 0 0 0 0 0 0 0 0 0 0 0 1 0 1 0 0
0 0 0 -0 -0 -0 0 0 0 -0 -0 -0 -0 -0 -0 -0 -0 0 0 0 0 0 0 0 0 0 0 0 0 0 0 0 0 0 0 0 0 0 0 0 0 0 0
0 0 0 -0 -0 0 0 0 0 -0 -0 -0 -0 -0 -0 -0 -0 -0 0 0 0 0 0 0 0 0 0 0 0 0 0 0 0 0 -0 -0 -0 0 0 0 0 0 0
0 0 0 -0 -0 0 0 0 0 0 -0 -0 -0 -0 -0 -0 -0 0 0 0 0 0 0 0 0 0 0 0 0 0 -0 -0 -0 0 -0 0 0 0 0 0 0 0 0
0 0 0 0 0 0 0 0 0 0 -0 -0 -0 -0 -0 -0 -0 -0 0 0 0 0 0 0 0 0 0 0 0 -0 -0 -0 -0 0 0 0 0 0 0 0 0 0 0
0 0 0 0 0 0 0 0 0 0 0 -0 -0 -0 -0 -0 -0 -0 0 0 0 0 0 0 0 0 0 0 0 -0 -0 -0 0 0 0 0 0 0 0 0 0 0 0
0 0 0 0 0 0 0 0 0 0 0 0 -0 -0 -0 -0 -0 0 0 0 0 0 0 0 0 0 0 0 0 0 0 0 0 0 0 0 0 0 0 -0 -0 0 0
0 0 0 0 0 0 0 0 0 0 0 0 0 -0 -0 -0 -0 0 0 0 0 0 0 0 0 -0 -0 -0 -0 0 0 0 0 0 0 0 0 0 0 0 0 0 -0
0 0 0 0 0 0 0 0 0 0 0 0 0 0 0 -0 0 0 0 0 0 0 0 0 -0 -0 -0 0 0 0 0 0 0 0 0 0 0 0 0 0 0 0 -0
0 0 0 0 0 0 0 0 0 0 0 0 0 0 0 -0 0 0 0 0 0 0 0 -0 -0 -0 -0 -0 0 0 0 0 0 0 0 0 0 0 0 0 -0 -0 0
0 0 0 0 0 0 0 0 0 0 0 0 0 0 0 0 -0 0 0 0 0 0 0 -0 -0 -0 -0 -0 0 0 0 0 0 0 0 0 0 0 0 0 0 0 -0
0 0 0 0 0 0 0 0 0 0 0 0 0 0 0 0 -0 0 0 0 0 0 -0 -0 -0 -0 -0 -0 -0 0 0 0 0 0 0 0 0 0 -0 0 -0 0 -0
0 0 0 0 0 0 0 0 0 0 0 0 0 0 0 0 -0 0 0 0 0 0 0 -0 -0 -0 -0 0 -0 0 0 0 0 0 0 0 0 -0 -0 0 -0 -0 -0
0 0 0 0 0 0 0 0 0 0 0 0 0 0 0 0 0 -0 0 0 0 0 0 -0 -0 -0 -0 0 -0 0 0 -0 0 0 0 0 0 0 0 0 0 -0 -0
0 0 0 0 0 0 0 0 0 0 0 0 0 0 0 0 0 0 0 0 0 0 0 0 0 0 -0 0 0 0 0 0 0 0 0 0 0 0 0 0 -0 0 -0
0 0 0 0 0 0 0 0 0 0 0 0 0 0 0 0 0 0 0 0 0 0 0 0 0 0 0 0 0 0 0 0 0 0 0 0 -0 0 0 -0 -0 -0 -0
0 0 0 0 0 0 0 0 0 0 0 0 0 0 0 0 0 0 0 0 0 0 0 0 0 0 0 0 0 0 0 0 0 0 0 0 -0 -0 -0 -0 0 -0 -0
0 0 0 0 0 0 0 0 0 0 0 0 0 0 0 0 0 0 0 0 0 0 0 0 0 0 0 0 0 0 0 -0 -0 0 0 -0 -0 -0 -0 -0 0 -0 0
0 0 0 0 0 0 0 0 0 0 0 0 0 0 0 0 0 0 0 0 0 0 0 0 0 0 0 0 0 0 0 0 0 -0 -0 -0 -0 -0 -0 -0 -0 -0 -0
0 0 0 0 0 0 0 0 0 0 0 0 0 0 0 0 0 0 0 0 0 0 0 0 0 0 0 0 0 0 0 0 0 0 -0 -0 -0 -0 -0 -0 -0 -0 -0
0 0 0 0 0 0 0 0 0 0 0 0 0 0 0 0 0 0 0 0 0 0 0 0 0 0 0 0 0 0 0 0 0 0 0 -0 -0 -0 -0 -0 -0 -0 -0
0 0 0 0 0 0 0 0 0 0 0 0 0 0 0 0 0 0 0 0 0 0 -0 0 -0 -0 -0 0 0 0 0 0 0 0 0 0 -0 -0 0 0 0 0 0
0 0 0 0 0 0 0 0 0 0 0 0 0 0 0 0 0 0 0 0 0 0 -0 -0 -0 -0 -0 0 0 0 0 0 0 0 0 0 -0 -0 -0 -0 0 0 0
Wind_Speed_500mb
36 40 35 30 22 20 19 14 8 8 6 6 5 5 5 5 5 6 8 9 11 13 13 14 15 17 18 19 19 17 12 13 15 18 17 42 42 35 21 11 22 25 26
35 41 35 28 21 22 17 11 9 4 4 3 3 4 4 4 7 8 9 11 14 15 12 18 18 18 20 19 18 20 19 16 20 18 21 28 29 40 16 23 18 20 32
35 39 32 24 21 21 16 11 7 5 2 1 2 3 5 9 10 11 10 13 13 15 18 16 20 19 18 17 18 19 18 19 11 14 16 8 11 31 22 21 19 17 27
31 35 31 21 25 20 15 10 8 6 2 1 1 3 7 9 11 15 16 14 11 18 19 22 22 21 19 22 24 23 24 18 15 12 10 18 15 26 24 25 26 32 34
33 31 29 24 25 18 13 10 10 7 4 1 2 4 8 9 13 15 15 15 17 17 19 20 22 25 26 24 26 24 21 18 15 13 10 14 21 19 7 37 29 37 30
31 29 27 25 21 17 14 13 9 8 5 2 2 6 8 10 14 16 14 15 20 20 21 19 22 24 24 23 24 24 21 20 12 9 8 1 6 13 24 22 25 38 30
30 31 28 27 14 16 15 14 10 9 6 2 2 4 7 11 15 12 13 22 22 17 15 14 23 24 23 24 25 25 25 21 14 12 9 3 5 9 20 14 29 31 32
23 28 23 26 15 16 16 14 11 9 6 3 1 3 7 11 12 12 17 21 14 17 23 16 25 27 26 34 29 36 36 32 24 12 10 14 23 33 26 27 29 35 39
28 24 21 20 19 18 18 15 13 10 6 4 1 3 8 10 11 12 14 15 16 21 20 27 31 32 33 36 36 40 38 36 29 26 22 35 45 38 42 37 34 38 32
30 25 18 23 20 21 22 18 14 11 8 4 2 3 9 10 12 14 12 13 18 26 27 29 33 31 36 38 41 38 37 32 34 32 34 44 56 57 44 35 35 55 40
36 31 25 25 24 22 25 22 17 14 10 6 5 4 8 9 11 12 11 17 24 26 27 33 31 30 35 37 38 36 40 42 38 44 45 39 47 44 37 34 38 46 43
42 39 33 29 31 26 26 24 20 16 13 10 8 6 8 8 9 11 10 18 25 26 28 33 30 29 31 34 36 37 43 47 53 53 55 51 45 38 33 37 37 39 41
38 38 39 33 35 31 27 26 24 20 16 14 11 8 9 8 9 10 9 18 22 26 27 30 28 28 31 34 37 39 42 51 43 46 47 45 41 37 36 39 37 37 40
48 43 40 38 36 33 32 28 27 22 20 17 13 11 10 9 8 8 9 17 21 24 24 28 27 28 33 36 39 39 37 40 40 38 40 40 41 35 34 35 35 36 37
53 50 45 44 38 38 38 36 34 28 23 21 17 14 11 11 9 8 11 17 22 23 25 26 26 28 36 37 41 45 46 46 41 42 42 42 37 35 35 33 33 35 40
56 55 49 49 42 40 37 37 36 32 28 25 21 17 15 14 12 10 12 16 25 23 26 27 27 30 37 38 44 44 42 46 46 44 42 40 41 35 36 35 34 36 44
62 56 56 55 49 43 41 39 35 35 32 27 24 21 18 17 15 12 13 17 26 26 27 30 29 32 37 40 44 43 45 43 43 41 38 37 36 34 32 26 22 41 47
69 67 61 60 59 51 46 44 38 38 35 31 28 26 22 21 20 16 16 18 28 30 27 30 31 36 38 40 45 48 51 48 45 44 40 36 36 33 33 28 19 42 38
74 74 70 69 66 60 48 47 43 38 39 35 33 30 27 25 24 21 19 20 30 32 29 31 36 37 42 43 45 48 48 47 48 45 39 34 32 36 44 54 55 55 53
70 78 77 76 72 65 58 50 50 45 43 41 38 34 31 30 28 27 24 24 32 35 34 34 39 41 45 46 48 46 43 44 44 45 44 49 43 47 54 53 71 63 62
55 70 78 81 82 75 73 66 62 62 54 50 44 39 36 34 33 31 29 27 32 37 37 39 43 44 47 46 50 51 44 37 40 42 41 40 53 56 55 61 62 59 61
53 59 73 80 83 82 84 76 69 69 60 51 47 44 41 39 37 36 33 30 35 44 44 45 49 52 51 47 49 50 39 40 36 38 40 43 53 54 56 54 57 58 51
64 54 62 77 82 82 88 83 76 65 63 60 59 53 49 45 42 40 37 34 36 43 47 47 48 49 53 48 32 30 26 23 51 49 35 53 55 57 55 53 48 46 47
73 63 60 72 87 88 92 91 87 79 82 78 67 61 55 50 47 45 43 40 37 41 48 51 51 44 46 47 47 29 25 61 38 46 64 64 56 54 51 42 42 42 38
73 71 69 70 83 95 94 94 92 87 80 76 71 65 59 56 52 50 49 47 44 42 49 53 52 52 49 41 43 27 55 51 55 68 61 65 56 51 44 37 38 37 34
65 64 68 68 79 93 98 96 95 92 88 82 77 74 68 64 60 57 55 54 51 48 50 48 46 49 50 44 30 46 56 67 69 77 72 63 59 47 40 38 37 36 36
Wind_Direction_500mb
181 176 186 197 205 188 188 197 221 250 280 301 304 314 317 317 307 319 322 330 2 22 12 4 357 355 346 344 342 341 296 289 320 317 290 233 219 224 221 192 203 205 171
177 179 190 200 214 186 187 192 220 245 284 303 339 335 338 340 357 343 358 26 38 31 12 8 6 354 0 342 346 339 326 302 274 288 297 296 235 219 237 219 206 203 173
179 178 186 197 195 181 181 198 212 229 255 19 337 348 356 10 10 358 16 22 34 17 24 11 14 358 351 342 356 352 349 339 332 262 301 330 194 190 203 217 193 188 174
173 176 184 181 190 180 186 196 185 196 146 118 2 14 16 26 15 16 15 34 23 39 27 33 22 20 23 26 26 29 26 34 30 31 54 43 106 156 188 198 198 173 166
175 177 172 179 195 182 194 177 170 173 141 140 53 29 44 25 18 20 32 30 40 37 49 38 39 41 40 37 38 36 35 26 35 52 56 72 99 132 141 190 184 168 174
175 174 172 184 197 189 192 171 177 162 147 139 57 42 38 28 31 31 31 44 54 47 38 27 39 36 35 45 37 35 32 26 19 25 23 66 117 82 49 183 159 154 151
175 178 177 191 183 187 181 176 182 163 154 138 57 40 44 33 36 38 41 57 45 47 48 35 42 36 40 52 51 36 25 24 11 36 61 108 148 57 64 91 154 143 163
182 188 202 199 197 195 190 183 186 172 163 148 79 49 47 40 46 57 64 65 42 51 67 64 53 48 59 60 50 48 37 38 33 34 51 89 103 98 109 114 149 138 128
189 197 215 209 204 202 191 191 193 180 176 166 144 65 61 51 67 64 71 72 47 61 60 63 65 63 67 63 56 55 47 43 36 62 89 110 116 116 107 120 132 141 120
197 206 220 215 213 211 197 194 198 190 189 185 178 101 69 71 80 67 57 70 53 60 58 74 72 69 72 68 60 48 54 53 57 67 102 118 109 98 103 114 103 132 145
203 209 216 225 220 212 199 197 199 197 198 195 200 141 98 96 83 70 55 46 57 64 69 80 80 81 79 72 65 56 69 58 72 89 99 99 105 104 114 122 115 122 141
211 213 217 230 220 214 207 204 202 207 203 193 197 165 132 112 97 78 53 57 70 72 81 85 87 88 85 80 76 70 80 77 95 98 103 93 85 99 111 123 125 125 134
221 222 221 230 219 217 219 215 208 209 207 196 198 182 155 130 112 89 73 74 82 86 92 91 93 93 90 92 87 78 88 96 91 98 99 97 94 95 103 119 127 134 137
226 227 228 231 234 226 224 223 218 212 214 202 204 188 170 153 138 112 91 89 99 101 103 101 102 99 99 103 100 94 91 99 98 95 100 98 95 96 110 127 129 129 138
233 234 229 232 236 230 231 227 218 212 214 210 207 198 184 167 162 138 109 103 114 117 116 112 109 107 108 106 103 104 101 97 97 98 96 98 91 91 91 113 122 129 136
243 243 234 233 236 235 229 227 221 212 212 215 210 201 192 173 174 159 125 118 129 130 125 120 117 114 111 106 103 98 98 101 102 105 104 94 94 86 89 103 117 128 134
255 253 241 237 236 236 231 222 220 215 212 216 211 205 194 181 178 170 143 134 140 139 132 128 125 122 114 111 104 96 94 95 102 107 103 94 90 90 81 85 112 129 125
257 256 247 239 238 236 234 222 218 216 213 216 214 211 200 188 182 178 159 149 149 147 141 135 133 131 121 115 108 96 93 91 89 94 98 98 88 81 69 60 121 149 136
259 257 250 241 239 238 236 227 219 220 219 214 215 212 204 194 186 182 170 160 158 155 150 141 140 137 124 113 109 103 99 96 96 100 96 94 101 91 86 66 109 134 130
262 256 252 245 242 238 237 233 223 222 220 217 214 213 207 198 190 186 180 170 164 165 157 148 143 133 127 117 111 111 104 100 100 102 102 98 95 93 99 97 103 113 122
268 254 249 244 241 236 230 228 223 218 215 215 211 212 210 203 196 191 188 180 174 172 164 154 142 140 131 127 119 106 107 110 103 104 103 97 105 105 108 104 110 110 114
276 261 247 243 242 237 232 235 230 222 216 217 215 211 210 206 201 196 192 185 177 176 172 165 155 145 144 141 121 112 105 107 114 115 113 112 110 109 106 107 111 114 114
273 268 252 242 241 237 232 232 231 225 222 217 214 212 209 207 203 199 194 190 183 182 179 170 160 156 152 150 135 136 127 130 117 131 126 124 118 114 109 111 115 114 116
275 270 264 252 240 236 232 231 230 230 220 217 215 212 208 207 204 201 198 193 189 186 183 172 166 168 160 155 145 156 157 139 133 117 121 125 124 117 113 114 118 119 121
291 272 267 252 241 235 233 232 232 230 231 224 216 215 211 209 205 201 200 196 193 186 183 180 176 166 170 165 163 161 152 150 140 131 120 127 126 121 121 127 130 129 130
300 280 264 252 241 235 234 232 231 231 231 224 219 214 212 210 207 202 202 200 195 190 185 184 183 181 178 175 169 166 164 155 152 142 135 131 127 126 131 130 131 131 135
Wind_Speed_850mb
36 40 35 30 22 20 19 14 8 8 6 6 5 5 5 5 5 6 8 9 11 13 13 14 15 17 18 19 19 17 12 13 15 18 17 42 42 35 21 11 22 25 26
35 41 35 28 21 22 17 11 9 4 4 3 3 4 4 4 7 8 9 11 14 15 12 18 18 18 20 19 18 20 19 16 20 18 21 28 29 40 16 23 18 20 32
35 39 32 24 21 21 16 11 7 5 2 1 2 3 5 9 10 11 10 13 13 15 18 16 20 19 18 17 18 19 18 19 11 14 16 8 11 31 22 21 19 17 27
31 35 31 21 25 20 15 10 8 6 2 1 1 3 7 9 11 15 16 14 11 18 19 22 22 21 19 22 24 23 24 18 15 12 10 18 15 26 24 25 26 32 34
33 31 29 24 25 18 13 10 10 7 4 1 2 4 8 9 13 15 15 15 17 17 19 20 22 25 26 24 26 24 21 18 15 13 10 14 21 19 7 37 29 37 30
31 29 27 25 21 17 14 13 9 8 5 2 2 6 8 10 14 16 14 15 20 20 21 19 22 24 24 23 24 24 21 20 12 9 8 1 6 13 24 22 25 38 30
30 31 28 27 14 16 15 14 10 9 6 2 2 4 7 11 15 12 13 22 22 17 15 14 23 24 23 24 25 25 25 21 14 12 9 3 5 9 20 14 29 31 32
23 28 23 26 15 16 16 14 11 9 6 3 1 3 7 11 12 12 17 21 14 17 23 16 25 27 26 34 29 36 36 32 24 12 10 14 23 33 26 27 29 35 39
28 24 21 20 19 18 18 15 13 10 6 4 1 3 8 10 11 12 14 15 16 21 20 27 31 32 33 36 36 40 38 36 29 26 22 35 45 38 42 37 34 38 32
30 25 18 23 20 21 22 18 14 11 8 4 2 3 9 10 12 14 12 13 18 26 27 29 33 31 36 38 41 38 37 32 34 32 34 44 56 57 44 35 35 55 40
36 31 25 25 24 22 25 22 17 14 10 6 5 4 8 9 11 12 11 17 24 26 27 33 31 30 35 37 38 36 40 42 38 44 45 39 47 44 37 34 38 46 43
42 39 33 29 31 26 26 24 20 16 13 10 8 6 8 8 9 11 10 18 25 26 28 33 30 29 31 34 36 37 43 47 53 53 55 51 45 38 33 37 37 39 41
38 38 39 33 35 31 27 26 24 20 16 14 11 8 9 8 9 10 9 18 22 26 27 30 28 28 31 34 37 39 42 51 43 46 47 45 41 37 36 39 37 37 40
48 43 40 38 36 33 32 28 27 22 20 17 13 11 10 9 8 8 9 17 21 24 24 28 27 28 33 36 39 39 37 40 40 38 40 40 41 35 34 35 35 36 37
53 50 45 44 38 38 38 36 34 28 23 21 17 14 11 11 9 8 11 17 22 23 25 26 26 28 36 37 41 45 46 46 41 42 42 42 37 35 35 33 33 35 40
56 55 49 49 42 40 37 37 36 32 28 25 21 17 15 14 12 10 12 16 25 23 26 27 27 30 37 38 44 44 42 46 46 44 42 40 41 35 36 35 34 36 44
62 56 56 55 49 43 41 39 35 35 32 27 24 21 18 17 15 12 13 17 26 26 27 30 29 32 37 40 44 43 45 43 43 41 38 37 36 34 32 26 22 41 47
69 67 61 60 59 51 46 44 38 38 35 31 28 26 22 21 20 16 16 18 28 30 27 30 31 36 38 40 45 48 51 48 45 44 40 36 36 33 33 28 19 42 38
74 74 70 69 66 60 48 47 43 38 39 35 33 30 27 25 24 21 19 20 30 32 29 31 36 37 42 43 45 48 48 47 48 45 39 34 32 36 44 54 55 55 53
70 78 77 76 72 65 58 50 50 45 43 41 38 34 31 30 28 27 24 24 32 35 34 34 39 41 45 46 48 46 43 44 44 45 44 49 43 47 54 53 71 63 62
55 70 78 81 82 75 73 66 62 62 54 50 44 39 36 34 33 31 29 27 32 37 37 39 43 44 47 46 50 51 44 37 40 42 41 40 53 56 55 61 62 59 61
53 59 73 80 83 82 84 76 69 69 60 51 47 44 41 39 37 36 33 30 35 44 44 45 49 52 51 47 49 50 39 40 36 38 40 43 53 54 56 54 57 58 51
64 54 62 77 82 82 88 83 76 65 63 60 59 53 49 45 42 40 37 34 36 43 47 47 48 49 53 48 32 30 26 23 51 49 35 53 55 57 55 53 48 46 47
73 63 60 72 87 88 92 91 87 79 82 78 67 61 55 50 47 45 43 40 37 41 48 51 51 44 46 47 47 29 25 61 38 46 64 64 56 54 51 42 42 42 38
73 71 69 70 83 95 94 94 92 87 80 76 71 65 59 56 52 50 49 47 44 42 49 53 52 52 49 41 43 27 55 51 55 68 61 65 56 51 44 37 38 37 34
65 64 68 68 79 93 98 96 95 92 88 82 77 74 68 64 60 57 55 54 51 48 50 48 46 49 50 44 30 46 56 67 69 77 72 63 59 47 40 38 37 36 36
Wind_Direction_850mb
181 176 186 197 205 188 188 197 221 250 280 301 304 314 317 317 307 319 322 330 2 22 12 4 357 355 346 344 342 341 296 289 320 317 290 233 219 224 221 192 203 205 171
177 179 190 200 214 186 187 192 220 245 284 303 339 335 338 340 357 343 358 26 38 31 12 8 6 354 0 342 346 339 326 302 274 288 297 296 235 219 237 219 206 203 173
179 178 186 197 195 181 181 198 212 229 255 19 337 348 356 10 10 358 16 22 34 17 24 11 14 358 351 342 356 352 349 339 332 262 301 330 194 190 203 217 193 188 174
173 176 184 181 190 180 186 196 185 196 146 118 2 14 16 26 15 16 15 34 23 39 27 33 22 20 23 26 26 29 26 34 30 31 54 43 106 156 188 198 198 173 166
175 177 172 179 195 182 194 177 170 173 141 140 53 29 44 25 18 20 32 30 40 37 49 38 39 41 40 37 38 36 35 26 35 52 56 72 99 132 141 190 184 168 174
175 174 172 184 197 189 192 171 177 162 147 139 57 42 38 28 31 31 31 44 54 47 38 27 39 36 35 45 37 35 32 26 19 25 23 66 117 82 49 183 159 154 151
175 178 177 191 183 187 181 176 182 163 154 138 57 40 44 33 36 38 41 57 45 47 48 35 42 36 40 52 51 36 25 24 11 36 61 108 148 57 64 91 154 143 163
182 188 202 199 197 195 190 183 186 172 163 148 79 49 47 40 46 57 64 65 42 51 67 64 53 48 59 60 50 48 37 38 33 34 51 89 103 98 109 114 149 138 128
189 197 215 209 204 202 191 191 193 180 176 166 144 65 61 51 67 64 71 72 47 61 60 63 65 63 67 63 56 55 47 43 36 62 89 110 116 116 107 120 132 141 120
197 206 220 215 213 211 197 194 198 190 189 185 178 101 69 71 80 67 57 70 53 60 58 74 72 69 72 68 60 48 54 53 57 67 102 118 109 98 103 114 103 132 145
203 209 216 225 220 212 199 197 199 197 198 195 200 141 98 96 83 70 55 46 57 64 69 80 80 81 79 72 65 56 69 58 72 89 99 99 105 104 114 122 115 122 141
211 213 217 230 220 214 207 204 202 207 203 193 197 165 132 112 97 78 53 57 70 72 81 85 87 88 85 80 76 70 80 77 95 98 103 93 85 99 111 123 125 125 134
221 222 221 230 219 217 219 215 208 209 207 196 198 182 155 130 112 89 73 74 82 86 92 91 93 93 90 92 87 78 88 96 91 98 99 97 94 95 103 119 127 134 137
226 227 228 231 234 226 224 223 218 212 214 202 204 188 170 153 138 112 91 89 99 101 103 101 102 99 99 103 100 94 91 99 98 95 100 98 95 96 110 127 129 129 138
233 234 229 232 236 230 231 227 218 212 214 210 207 198 184 167 162 138 109 103 114 117 116 112 109 107 108 106 103 104 101 97 97 98 96 98 91 91 91 113 122 129 136
243 243 234 233 236 235 229 227 221 212 212 215 210 201 192 173 174 159 125 118 129 130 125 120 117 114 111 106 103 98 98 101 102 105 104 94 94 86 89 103 117 128 134
255 253 241 237 236 236 231 222 220 215 212 216 211 205 194 181 178 170 143 134 140 139 132 128 125 122 114 111 104 96 94 95 102 107 103 94 90 90 81 85 112 129 125
257 256 247 239 238 236 234 222 218 216 213 216 214 211 200 188 182 178 159 149 149 147 141 135 133 131 121 115 108 96 93 91 89 94 98 98 88 81 69 60 121 149 136
259 257 250 241 239 238 236 227 219 220 219 214 215 212 204 194 186 182 170 160 158 155 150 141 140 137 124 113 109 103 99 96 96 100 96 94 101 91 86 66 109 134 130
262 256 252 245 242 238 237 233 223 222 220 217 214 213 207 198 190 186 180 170 164 165 157 148 143 133 127 117 111 111 104 100 100 102 102 98 95 93 99 97 103 113 122
268 254 249 244 241 236 230 228 223 218 215 215 211 212 210 203 196 191 188 180 174 172 164 154 142 140 131 127 119 106 107 110 103 104 103 97 105 105 108 104 110 110 114
276 261 247 243 242 237 232 235 230 222 216 217 215 211 210 206 201 196 192 185 177 176 172 165 155 145 144 141 121 112 105 107 114 115 113 112 110 109 106 107 111 114 114
273 268 252 242 241 237 232 232 231 225 222 217 214 212 209 207 203 199 194 190 183 182 179 170 160 156 152 150 135 136 127 130 117 131 126 124 118 114 109 111 115 114 116
275 270 264 252 240 236 232 231 230 230 220 217 215 212 208 207 204 201 198 193 189 186 183 172 166 168 160 155 145 156 157 139 133 117 121 125 124 117 113 114 118 119 121
291 272 267 252 241 235 233 232 232 230 231 224 216 215 211 209 205 201 200 196 193 186 183 180 176 166 170 165 163 161 152 150 140 131 120 127 126 121 121 127 130 129 130
300 280 264 252 241 235 234 232 231 231 231 224 219 214 212 210 207 202 202 200 195 190 185 184 183 181 178 175 169 166 164 155 152 142 135 131 127 126 131 130 131 131 135